timestamp,gas_concentrations,,corrected_fluxes_and_quality_flags,,,,,,,,,,storage_terms,,,turbulence,,,footprint,,
ISOdate,CO2_1_1_1,H2O_1_1_1,Tau_1_1_1,QcTau_1_1_1,H_1_1_1,QcH_1_1_1,LE_1_1_1, QcLE_1_1_1,Fc_1_1_1, QcFc_1_1_1,E_1_1_1, QcE_1_1_1,Sa_1_1_1,Sw_1_1_1,Sc_1_1_1,ustar_1_1_1,MO_length_1_1_1,ZL_1_1_1,Fetchmax_1_1_1,Fetch70_1_1_1,Fetch90_1_1_1
yyyymmddHHMM,[µmol+1mol_a-1],[mmol+1mol_a-1],[kg+1m-1s-2],[#],[W+1m-2],[#],[W+1m-2],[#],[µmol+1s-1m-2],[#],[mmol+1s-1m-2],[#],[W+1m-2],[W+1m-2],[µmol+1s-1m-2],[m+1s-1],[m],[#],[m],[m],[m]
201306100030,380.27425111369433,14.597011135481045,0.61907779467348933,0,-36.911431158589323,0,8.3812200221269215,0,4.0689402111518591,0,0.18879304200650662,0,-9999.,-9999.,-9999.,0.73866069626993092,915.47511472688734,2.35943060084641450E-002,111.32089533950230,203.53010065918880,304.92517882768215
201306100100,381.04801764700699,14.716910154744102,0.67652154094043448,0,-29.947841646079571,0,3.0594570282681595,0,3.2148609417898983,0,6.89005298624232043E-002,0,-5.3843635354803672,4.0802921976204241,0.59301240741369110,0.77195083818247046,1287.7002307645685,1.67740903386924614E-002,118.46341720114431,216.58890861278064,324.48965276853249
201306100130,381.98929375869369,14.826241225251122,0.58361624776399867,0,-25.692896846961059,0,4.9216824768170069,0,2.5577462280416459,0,0.11081460122686557,0,-5.0825130971559087,3.7242757191694227,0.72193593278866008,0.71673341357549059,1201.3443311969363,1.79798575970964609E-002,114.82080236591389,209.92904694156371,314.51196639936023
201306100200,382.54770724850704,14.862657212269363,0.51767271692287198,0,-39.929652727427680,0,5.7956252406410362,0,3.8103116780785506,0,0.13046668293731378,0,-4.5107824129939438,1.2415287608229459,0.42856818314751660,0.67481294965168648,645.13161143025513,3.34815402272923140E-002,114.14123894900473,208.68658827981827,312.65053691845446
201306100230,383.93819728982197,14.736607649891640,0.47521487193579226,0,-28.164640166870459,0,8.0806588198491234,0,4.3295714207798337,0,0.18184710246842117,0,-7.5086106515686533,-4.3049577201976383,1.0686981217080151,0.64606885275916148,802.78249084697802,2.69064164282044292E-002,123.12199428299199,225.10627329535333,337.25021713008118
201306100300,384.51462373829321,14.687674514680335,0.32110451856626493,0,-29.036978383256468,0,4.3183202148005657,0,2.7403843354614157,0,9.71484565876153811E-002,0,-7.4562251738683285,-1.6734366799836056,0.44347710430637022,0.53080241518308813,431.78013642072591,5.00254601312946773E-002,115.06761708184587,210.38030295980360,315.18803014429631
201306100330,385.22323460175085,14.647081991267303,0.30276923378820997,0,-35.114787582133580,0,0.96884530993429918,1,2.9934157850536263,0,2.17886289608943719E-002,1,-7.8468435926197406,-1.3902481574025642,0.54579499202643256,0.51512779342267634,326.31764012257730,6.61931729828832416E-002,117.39420103091804,214.63404044459978,321.56090402897752
201306100400,385.89213173001235,14.526224099568276,0.20245891653881998,0,-32.997475335776940,0,0.70684018461650855,1,2.6969677689965801,0,1.58913885078243756E-002,1,-7.2769096106664106,-4.1447157414156521,0.51572677782847198,0.42101569131323346,189.56213834197388,0.11394680493123142,109.11586331479808,199.49859885913517,298.88525449538918
201306100430,386.89043033767490,14.435151331446489,0.25440667924652011,0,-30.006872072252513,0,4.7636623440198207,1,2.0284173105752688,0,0.10706776269912831,1,-6.6379867057193573,-3.1271532629328767,0.77044005289956630,0.47171267419962182,293.17009450621629,7.36773647952758820E-002,113.01295645426504,206.62372803218886,309.55999636515219
201306100500,387.16588040644399,14.417148233172263,0.32864697262898068,0,-28.050885032472891,0,6.1984822530225925,0,0.65950254360586147,0,0.13931520995735153,0,-0.24776381254251115,-0.61809289987839267,0.21255070972417611,0.53617428174279547,460.49383944083439,4.69061649689566235E-002,119.11828619546698,217.78621799415583,326.28344040016759
201306100530,385.59084991273653,14.480487528421827,0.28648622460349205,0,-3.5999385722343922,2,15.358511957803321,0,-4.6188786111090607,1,0.34532552032001435,0,8.9737454309616584,2.1705069380775570,-1.2135465856484791,0.50098457696871501,2926.8773787226082,7.37987869154497957E-003,113.42767338181341,207.38196284292738,310.69597028011123
201306100600,383.82051108330035,14.594723532177781,0.44626965384736306,0,28.852980697523972,0,50.271990905023806,0,-7.0935857868792507,0,1.1309043302219459,0,11.852113563763870,3.9049814871801356,-1.3613573938035519,0.62590216987120106,-712.08278460445729,-3.03335517540958624E-002,120.91394650054824,221.06925772832523,331.20203217012056
201306100630,382.34859973032422,14.724771587170496,0.37292272981512326,0,29.521832331239253,0,45.512078499824000,0,-5.6504418265658103,0,1.0243876752431100,0,12.767423448198326,4.4333714074256134,-1.1294046842994732,0.57279848301768654,-533.35517232910718,-4.04983416691639536E-002,118.75410419497810,217.12037714737042,325.28588947959491
201306100700,379.33556343884425,14.934847921242405,0.42918424797736909,0,82.089795381980821,0,104.75660161726940,0,-11.195389338574511,0,2.3601813959179503,0,22.782460209297717,7.1292715365577362,-2.3037554219686687,0.61560143907782439,-238.11646369067802,-9.07119132596358041E-002,120.88576973364069,221.01774161189937,331.12485164024906
201306100730,376.59319314810193,15.378592424860841,0.36138716093261314,0,90.628030890689146,0,111.71575424380069,0,-11.750272655025285,0,2.5201778626687470,0,29.380575376598784,14.973235718472562,-2.0874954646549049,0.56619629873556521,-167.84152773491829,-0.12869282287583866,125.16113334671161,228.83446985388088,342.83573494111675
201306100800,375.42582555642286,15.624328196444480,0.27128001905608640,1,121.70053888315267,0,105.73481634852850,0,-16.102335863281201,0,2.3871338048187449,0,18.110287626831830,8.2633822202041340,-0.88624916773077311,0.49123068215995513,-81.639550591473053,-0.26457764457924443,109.87602093173217,200.88840942272796,300.96744397629431
201306100830,375.03718086985526,16.026575743729083,0.23656589289585317,1,122.35315699586984,0,102.26434335500021,0,-12.786730075095022,0,2.3112008791055545,0,23.970455879973553,13.461639156810314,-0.29394815242390204,0.45962217912192788,-66.520453250529613,-0.32471215911067219,115.19398039840731,210.61133540399069,315.53415884531194
201306100900,372.68118910478279,16.578696786062842,0.15822215442785789,1,188.67271388631485,0,150.02422703662913,0,-13.022292522360649,0,3.3936362494499130,0,20.493375990181431,18.397079432112534,-1.7757926115685156,0.37657712626990186,-23.723938182257815,-0.91047278213504101,92.629681184312062,169.35659992649761,253.72704750295642
201306100930,372.10860221993278,16.940555997391538,0.44865137512070291,0,197.87526593826223,0,168.60067044543388,0,-18.861290356891033,0,3.8172107176513403,0,20.018345736116480,12.007324105318709,-0.43016476534829995,0.63520983319743951,-108.56174756787711,-0.19896510957042973,124.45334227836420,227.54040204255864,340.89698554972659
201306101000,372.71227672420463,17.134842020715261,0.18831778266724764,1,153.25058078054170,0,160.35898167800210,0,-13.144750642779783,0,3.6349234015068173,0,26.789278108970624,6.4121317234822808,0.45161221929518197,0.41242000885478552,-38.365800622187216,-0.56300141401215975,87.446785288462095,159.88061322901981,239.53029267927775
201306101030,373.80670801165991,16.459575262919390,0.28987555032322304,1,216.01145114261732,0,196.85242495597694,0,-15.121253235044106,0,4.4646119121087438,0,12.495426223206067,-22.231364648824488,0.81718840573278206,0.51210454564700481,-52.106386101429131,-0.41453652068585073,103.53207998719529,189.28966207992460,283.59040688828293
201306101100,372.07299711061438,16.732607442008273,0.13315004251678478,0,30.903645119772779,0,84.059539185079558,0,-9.6121545996242155,0,1.9046883381706323,0,-21.126650140844596,9.0262374371696730,-1.2986930490956203,0.34653570040217402,-112.85459132254586,-0.19139673226289730,122.70852698884298,224.35032321301898,336.11766615460363
201306101130,373.84292285489983,16.301721636031587,6.24324385343927521E-002,0,1.5883030549744908,0,39.619095480788069,0,-3.1723838859279021,0,0.89755471059369007,0,-4.1947540477526433,-14.253660785046412,1.3264034770479765,0.23722010300615867,-704.21665201551355,-3.06723789308012036E-002,116.52361585177614,213.04233307822656,319.17623634709287
201306101200,373.20981134711565,16.284139465581749,9.35187386052745845E-003,1,17.596421038004777,1,67.084375809381541,0,-5.0353684871368296,1,1.5203967575303123,0,9.3163495191287478,-0.58048527049146748,-0.47373391497873563,9.18813518606826501E-002,-3.6933350715413136,-5.8483726988209126,38.255087219048917,113.00000000000000,247.00000000000000
201306101230,374.51483770257244,16.234758436209173,7.21227915143595605E-002,1,110.93191286687579,0,221.36669596259264,0,-13.385111725485785,0,5.0229713159316471,0,26.530553186865035,-1.6213792886687646,0.97228185274797974,0.25571189255933735,-12.627054995140478,-1.7106126494509417,83.188572314976213,152.09524182611568,227.86638763731216
201306101300,373.34356501562149,16.152430916338425,9.28202346634250108E-002,1,33.676942282752520,0,90.419345506554407,0,-10.190572980359757,0,2.0504017611856336,0,-14.033042278297613,-2.7103169369926832,-0.87440104862940715,0.28979394962922989,-60.531536901132931,-0.35683878364561611,117.16891609085364,214.22214772321564,320.94381367566319
201306101330,372.57918427895862,16.235245290932841,9.22837985671404876E-002,1,18.051987374055038,1,75.395774125548186,1,-6.9815304723391476,1,1.7098333123010809,1,1.5110353643720915,2.7251251974126540,-0.57042327283734584,0.28901483247742121,-112.00657115647390,-0.19284582839184197,139.28608980026414,254.65939517477938,381.52617898935438
201306101400,364.72382492557745,18.007171101963102,0.27604871578970103,1,101.20339931767074,1,51.286388290806237,1,-5.1642529646531816,1,1.1621382786454730,1,-18.258538515250212,58.532784676389205,-5.8799739084228717,0.49927036290583637,-103.04147073255649,-0.20962433713764306,130.35062170297854,238.32250967155827,357.05054753522052
201306101430,361.56344105695530,18.726682885155594,0.20616125053592085,0,36.616142164681250,0,58.045829143296594,0,-7.3772979947068293,0,1.3138012099211254,0,-25.978958043654547,23.887998575041799,-2.3748726639687181,0.43068560669225431,-182.81514971071584,-0.11815213363979704,125.41528899353716,229.29914743506404,343.53190663307083
201306101500,360.62396905101696,18.880216523283117,0.13905272170142863,1,61.730984536133761,0,46.746280579615629,0,-6.3035160899638267,0,1.0584150715314935,0,7.8502925801221339,5.0894203584436779,-0.70511114519972717,0.35393430632719503,-60.184583311436235,-0.35889589678185219,112.91975066516736,206.45331812325654,309.30469126882048
201306101530,360.87380857895204,18.983659422871309,0.29305246346173469,1,42.463536515253530,1,44.113228035479935,1,-12.107080989585350,1,0.99898247737772594,1,4.1782205043699525,3.4260171309192802,0.18738681379979602,0.51399877766375224,-267.97239820485640,-8.06053166098378709E-002,159.98807248678168,292.50922208446781,438.23211684156212
201306101600,365.86785453164629,18.802103736855777,0.46096787963448510,0,187.13266927151815,0,111.69870150925929,0,-15.371155916903954,0,2.5289803799768138,0,-4.7877943289773928,-6.0187334345535684,3.7483930510430494,0.64439529184935218,-119.81356331289838,-0.18028009018971128,124.29524746388641,227.25135429993827,340.46393935988641
201306101630,369.70573268638589,18.433844237490447,0.50173375453169344,0,131.88959652365710,0,94.199623690936150,0,-12.163996292340670,0,2.1322055858815698,0,-6.1395864442149808,-12.225883367445256,2.8840141142031555,0.67184088519365071,-192.67621692834621,-0.11210516972124672,125.56838002513848,229.57904666671152,343.95124668639670
201306101700,369.95388493758418,18.285531305329954,0.37179944861826214,0,65.863992663190459,0,64.406275415651848,0,-8.0749363272516863,0,1.4574757300206269,0,-5.5886242942026545,-4.9297952998676129,0.18665568917421088,0.57804742476056314,-245.75196040312326,-8.78935002779554081E-002,128.09546219637002,234.19935884724322,350.87331626394513
201306101730,369.55493196495678,18.351494074084769,0.27977598768116430,0,38.344336114631226,0,58.821446742899937,0,-7.0131912286771190,0,1.3312067341774161,0,1.9183447178447537,2.1915493595980768,-0.29997418994887320,0.50153377698313861,-275.70031148895168,-7.83459397755000009E-002,134.27354549924286,245.49486552350302,367.79604357579001
201306101800,370.73601052054971,18.267562708550113,0.30473487145148925,0,28.457018036744177,0,33.359260176370988,0,-2.6101625743731152,0,0.75456696384635158,0,-11.981451827056237,-2.7958521815268575,0.88991817830231579,0.52287099447604479,-421.01183158611224,-5.13049714508605550E-002,135.61095164181020,247.94007049592796,371.45940619916689
201306101830,372.73691284818682,17.988717267525978,0.35730222596873001,0,13.870121842644044,0,33.895404866191299,0,-2.8579285474656366,0,0.76632730881955879,0,-10.930869753896260,-9.3112391030302071,1.5105784914792209,0.56559456011868092,-1093.4242557137959,-1.97544547664157619E-002,139.66015655615976,255.34330850702938,382.55080578639098
201306101900,374.50816458662308,17.600475752253899,0.16216637518706323,0,2.0145531787116715,1,17.318321639890257,0,-1.7649228457330655,0,0.39130102579227433,0,-14.143152654810638,-13.000218254334815,1.3400905507650287,0.38059883011642731,-2293.6695706910909,-9.41722394367896891E-003,116.87489623223563,213.68458564883758,320.13844773160963
201306101930,375.64148990994141,17.443012992492086,9.75724525056855529E-002,0,-8.5293324316833985,0,12.697847308774687,0,-1.62276352798861323E-002,1,0.28673564121779810,0,-13.402922329241125,-5.2861071991616608,0.85914067139612926,0.29492373427208840,252.04100526097571,8.57003406157434422E-002,122.57887657552725,224.11328090759932,335.76253358632152
201306102000,377.04147887445646,17.410964066221442,1.45918179968534348E-002,1,-5.0501900560114645,0,3.1986547347141561,0,0.59146402421755917,0,7.21876846911051473E-002,0,-13.558319605747437,-1.0789334567202342,1.0636568391533436,0.11392382221729844,24.537180597694583,0.88029673637522365,469.34545361155313,4879.0000000000000,-9999.
201306102030,379.62068308237025,17.432652138037131,0.11556089154890752,0,-11.924086192592366,0,6.5254757275471382,0,3.1769964483715016,0,0.14718636716189401,0,-12.772536048997114,0.73213952695888274,1.9638759329716591,0.32025165478029155,230.88756042443086,9.35520300889906425E-002,122.40735134090126,223.79967807353523,335.29269939497516
201306102100,382.66043591123986,17.320703716480473,5.56112432929262782E-002,1,-9.5105005369423878,1,3.9749079954857924,1,1.9640581145297116,1,8.96014636043267892E-002,1,-14.253017395595423,-3.7908642124948648,2.3203128659226353,0.22187992544337298,96.288663532918434,0.22432547308765541,132.37438281430400,242.02259042856298,362.59394275220507
201306102130,384.79418264632056,17.209763134308876,3.75310168823564296E-003,2,-5.7513618816329863,1,0.58657463608389959,2,2.0423150039415958,1,1.32182654080441782E-002,2,-7.3062704037181216,-3.7625703702021083,1.6307532327610252,5.76042006819435029E-002,2.7863628135167819,7.7520414409844074,1025.6456689891354,7651.0000000000000,-9999.
201306102200,386.30637493569429,16.957049099459272,0.11943715346703238,1,-15.734289744589411,1,8.2545850332977011,1,6.4293387489265363,1,0.18593709869350378,1,-9.6487054972896171,-8.5870053616164324,1.1574179034389573,0.32470496309881602,182.40411109004194,0.11841838361492511,141.89706709932739,259.43309440596613,388.67805031956425
201306102230,384.34965515169699,16.872397656249056,1.76783467003245945E-002,0,-9.4827524398718985,0,2.2502853044925684,1,2.8579141847435365,0,5.06823802876559398E-002,1,-2.7501813597654201,-2.8776718805386197,-1.4981488375537064,0.12489971810846442,17.223740990840149,1.2540829551191703,168.47804940671620,1431.0000000000000,6627.0000000000000
201306102300,385.17657356889686,16.664059606949923,1.57131570097583106E-002,1,-5.8330975496279960,1,4.7292329821806431,1,2.2856887674153699,1,0.10653257000527362,1,3.8653018390551375,-7.0761825939309979,0.63268100600642752,0.11778967972875287,23.483024256121677,0.91981338367732601,189.50638676497599,1711.0000000000000,8315.0000000000000
201306102330,385.04986860012013,16.479026985424646,3.56807385633241270E-002,1,-18.669930960140118,1,6.5932065179623551,1,5.0662059284575012,1,0.14852431757535806,1,0.49150209596244782,-6.2841850524189127,-9.69382546246622956E-002,0.17749553630465495,25.104180270365809,0.86041447150926043,213.48854331413398,1978.0000000000000,9803.0000000000000
201306110000,381.76074309824588,16.519189871240187,1.57718237372921136E-002,1,-6.0817588739552857,1,-4.9118959326350211,1,1.4557343320773271,1,-0.11069327672223793,1,9.1397199201926629,1.3615940689710724,-2.5129003803998731,0.11809136847468578,22.696799390848003,0.95167603273216295,282.27126045258626,2686.0000000000000,-9999.
